Location: Fort Hays State University
(38.8712°N, 99.3432°W)
Time: 06:31:47
(UTC-05:00)

Cosmos 2279 Rocket - Visible Passes

Search period start: 29 July 2015 00:00
Search period end: 08 August 2015 00:00
Orbit: 964 x 980 km, 82.9° (Epoch: 27 July)

Date Brightness Start Highest point End Pass type
(mag) Time Alt. Az. Time Alt. Az. Time Alt. Az.
29 Jul 5.8 00:29:18 15° WSW 00:32:56 24° WNW 00:37:49 10° NNW visible
29 Jul 5.8 21:26:10 10° E 21:27:04 10° E 21:28:28 10° ENE visible
29 Jul 3.9 23:08:31 33° S 23:11:34 85° E 23:17:50 10° N visible
30 Jul 6.4 00:54:48 10° W 00:57:52 13° WNW 01:00:33 10° NW visible
30 Jul 5.3 21:47:42 13° ESE 21:51:05 21° E 21:55:38 10° NE visible
30 Jul 4.6 23:32:15 24° SSW 23:36:00 54° W 23:42:05 10° N visible
31 Jul 4.5 22:11:22 19° SE 22:15:12 38° E 22:20:54 10° NNE visible
31 Jul 5.5 23:55:55 13° SW 00:00:37 30° WNW 00:05:57 10° NNW visible
01 Aug 3.9 22:34:58 20° S 22:39:26 69° E 22:45:37 10° NNE visible
02 Aug 6.3 00:21:28 10° WSW 00:25:28 17° WNW 00:29:11 10° NNW visible
02 Aug 5.5 21:15:30 10° ESE 21:19:02 17° E 21:22:53 10° NE visible
02 Aug 4.3 22:58:30 15° SSW 23:03:47 67° W 23:09:59 10° N visible
03 Aug 4.8 21:37:52 10° SE 21:43:07 30° E 21:48:29 10° NNE visible
03 Aug 5.3 23:22:36 10° SW 23:28:20 37° WNW 23:34:00 10° N visible
04 Aug 4.1 22:01:16 10° SSE 22:07:18 55° E 22:13:21 10° NNE visible
04 Aug 6.1 23:48:26 10° WSW 23:53:06 21° WNW 23:57:32 10° NNW visible
05 Aug 4.0 22:25:23 10° S 22:31:36 83° W 22:37:51 10° N visible
06 Aug 6.7 00:16:11 10° W 00:18:06 11° WNW 00:19:32 10° NW visible
06 Aug 5.0 21:06:17 10° SE 21:11:02 24° E 21:15:58 10° NNE visible
06 Aug 4.9 22:50:07 10° SSW 22:56:04 46° WNW 23:02:00 10° N visible
07 Aug 4.3 21:29:22 10° SSE 21:35:11 44° E 21:41:02 10° NNE visible
07 Aug 5.9 23:15:37 10° SW 23:20:45 26° WNW 23:25:45 10° NNW visible
